Wind_Speed
9 9 9 9 9 8 7 6 6 5 4 3 3 2 2 1 2 3 3 3 4 4 5 4 5 5 4 5 6 6 7 7 6 6 7 6 6 7 7 8 8 9 9
8 8 9 8 9 8 7 7 5 5 3 3 2 2 1 1 2 2 3 4 5 5 6 6 6 6 6 7 7 8 8 8 9 9 7 7 8 8 9 9 9 9 10
8 9 8 8 8 8 7 6 5 4 3 3 2 2 1 2 3 4 4 4 5 5 7 7 7 8 8 8 9 9 9 9 10 9 9 9 9 10 11 11 11 11 12
8 8 7 7 7 6 6 5 4 3 3 2 1 1 1 2 3 4 5 5 5 5 6 7 7 8 9 9 9 9 9 9 10 9 9 10 11 11 11 12 12 12 13
7 6 6 6 6 5 4 3 3 2 2 1 1 1 2 3 3 4 5 5 6 6 7 8 8 9 10 10 10 10 10 10 10 11 11 11 11 12 12 12 13 13 14
6 6 5 5 4 4 3 2 2 1 1 0 1 2 3 4 4 5 5 5 6 7 7 8 9 10 11 11 11 11 11 12 12 13 12 12 13 13 13 14 14 14 14
5 5 4 4 4 3 3 2 1 1 1 1 2 3 4 4 5 5 5 6 6 6 7 8 9 10 11 12 12 12 12 13 13 14 14 14 14 14 15 15 15 16 15
4 4 3 3 3 2 2 1 1 1 1 2 2 3 4 5 5 5 6 7 7 7 8 8 9 9 10 11 11 12 12 13 13 13 14 14 15 15 15 16 16 16 16
2 2 2 2 2 1 1 1 1 1 2 3 3 4 4 5 6 7 7 8 8 8 8 9 9 10 11 11 12 12 13 13 13 14 15 15 15 15 15 16 16 17 17
2 2 3 2 1 1 1 2 3 3 3 3 4 4 5 6 6 7 8 8 8 9 9 10 11 11 12 12 12 12 12 12 13 14 14 15 15 15 16 16 16 16 18
2 2 2 1 0 1 2 3 3 4 4 4 4 5 5 6 7 8 8 9 9 9 10 11 12 12 12 12 13 13 13 13 13 13 14 15 16 16 16 16 16 16 17
1 1 0 1 2 2 3 3 4 4 5 5 6 6 7 7 8 9 9 10 10 11 11 12 12 13 13 13 13 14 13 13 14 14 14 14 15 16 16 16 17 18 19
1 1 1 2 2 3 3 4 5 6 6 6 7 8 8 8 9 9 10 11 12 12 13 13 13 13 13 13 13 13 13 13 14 14 15 15 16 16 16 16 17 17 18
2 2 3 3 4 4 4 5 6 7 7 7 8 8 9 9 10 10 11 12 13 13 13 13 13 13 13 13 13 13 13 14 14 14 15 16 16 16 16 17 17 17 18
3 3 4 4 5 6 6 6 7 7 8 8 9 9 10 10 11 11 11 12 12 13 13 13 13 12 12 12 12 13 14 14 15 15 16 17 17 16 17 18 18 19 20
3 3 4 5 5 6 6 6 7 7 8 8 9 9 10 10 11 12 12 12 13 13 13 13 13 13 13 13 13 14 14 15 16 17 17 17 17 17 17 17 18 19 20
2 3 5 5 6 6 7 7 8 8 9 9 10 10 10 11 12 12 13 13 13 13 13 14 14 14 14 15 15 15 16 16 16 16 17 18 17 17 18 18 19 19 19
5 5 6 7 7 8 8 9 9 9 10 10 11 11 11 12 12 13 14 14 14 14 14 14 14 15 15 16 16 16 17 17 17 18 18 18 17 18 18 18 19 20 20
7 7 7 8 9 9 10 10 11 11 12 12 12 12 12 12 13 14 15 15 15 15 15 15 15 16 17 17 18 18 19 19 19 19 20 19 19 19 19 20 20 20 21
9 9 10 10 11 11 12 12 13 13 13 14 13 14 14 14 14 15 16 16 16 16 16 16 16 17 18 18 19 19 20 20 20 21 21 20 21 21 21 21 21 22 22
12 12 12 13 13 13 13 14 15 15 15 15 15 15 16 16 16 17 17 17 17 17 18 18 18 19 19 20 20 21 21 21 21 22 21 22 22 22 22 23 23 23 24
14 14 14 15 15 16 16 16 16 17 17 17 17 17 17 18 18 19 19 19 19 19 19 20 20 20 21 21 21 21 22 22 22 23 23 23 23 24 24 24 25 25 25
17 17 17 17 18 17 18 18 19 19 18 18 19 19 19 20 20 21 21 20 20 20 21 21 21 21 22 22 23 23 22 23 23 24 24 24 25 25 25 26 26 26 26
19 19 19 19 19 19 19 19 20 20 20 20 20 21 21 21 21 22 21 21 21 21 21 22 22 22 22 23 23 23 23 24 24 24 25 25 26 27 27 27 27 28 28
20 20 21 21 21 21 21 21 22 22 22 22 22 22 22 23 23 23 23 23 23 24 24 24 24 24 24 25 25 25 25 26 26 26 26 27 27 27 28 28 29 29 28
21 22 22 22 22 23 24 24 25 24 24 24 24 24 24 23 24 24 25 25 25 25 25 26 26 26 26 26 26 26 26 27 28 28 28 28 29 29 29 29 29 29 29
Wind_Direction
140 142 146 149 147 145 144 150 156 152 152 152 157 156 153 205 206 221 231 245 257 257 255 256 261 268 270 275 276 280 274 269 261 262 256 255 264 270 274 277 276 272 272
130 134 142 144 143 139 137 141 142 143 146 153 158 175 203 226 245 254 255 259 267 270 268 269 268 271 277 278 278 282 283 279 274 272 265 264 268 272 274 276 277 279 278
114 117 124 130 136 136 130 126 125 138 152 166 176 200 230 247 259 270 276 281 283 281 274 272 274 274 275 280 282 283 284 287 284 278 272 275 273 274 278 277 278 279 280
110 113 121 125 133 130 129 128 127 128 143 163 198 219 248 270 278 282 285 284 284 286 285 279 275 276 280 284 284 285 286 288 285 282 278 280 279 276 278 277 279 280 281
111 115 114 115 123 126 126 124 125 124 124 159 237 259 283 293 298 297 293 287 281 283 284 282 283 286 286 287 284 284 284 285 284 282 281 283 283 284 278 280 281 281 280
106 108 107 108 110 118 111 109 112 114 114 206 266 273 289 291 298 301 297 295 290 286 288 287 286 286 284 283 283 285 286 284 281 280 282 283 284 285 283 283 282 282 282
111 115 114 114 113 108 102 84 76 51 8 313 302 292 291 295 301 304 303 301 297 294 292 293 293 292 288 283 282 283 283 282 282 282 283 284 286 285 285 283 282 280 278
113 116 117 120 117 103 85 90 64 20 344 325 310 309 309 309 311 313 314 314 311 308 304 302 301 299 299 295 290 289 289 288 288 287 285 286 286 286 286 284 283 282 281
125 130 125 129 117 91 51 30 10 338 325 311 303 304 304 304 303 305 306 307 310 309 307 306 304 300 298 297 295 293 293 293 291 291 290 288 290 287 291 289 285 284 283
129 145 144 141 123 53 358 349 350 341 324 309 303 302 302 303 304 304 306 307 308 308 306 306 305 303 300 298 294 296 297 295 291 289 288 290 288 286 290 292 288 287 285
125 138 145 151 187 328 338 337 332 333 330 323 311 306 302 302 304 304 306 306 305 306 305 304 302 301 300 300 298 295 292 293 295 294 293 293 291 290 293 292 291 292 292
132 136 108 305 303 311 320 322 320 322 323 317 311 311 310 305 300 300 303 306 306 306 304 303 302 301 299 298 297 296 294 293 295 296 297 297 296 297 298 294 292 293 293
9 326 346 337 319 310 316 321 321 320 316 311 308 309 309 308 306 301 302 305 305 304 304 303 304 302 300 298 299 301 298 299 299 296 296 298 297 296 295 295 294 295 296
332 300 304 312 312 311 312 313 314 315 314 312 310 309 312 310 307 305 305 306 305 304 304 304 304 303 300 299 300 300 300 300 298 299 299 299 297 297 295 293 294 296 297
310 308 309 305 305 299 301 305 307 311 309 308 309 308 309 309 307 306 306 307 308 307 307 306 305 305 305 303 304 303 303 303 302 302 301 300 298 297 298 296 296 296 296
299 309 325 323 315 309 305 310 315 315 310 310 311 312 313 314 313 311 311 310 309 306 303 302 302 300 301 302 303 304 303 304 303 303 302 303 300 296 297 297 298 297 297
301 311 321 329 326 320 315 315 315 316 314 311 310 310 311 310 310 312 313 312 310 307 305 303 300 299 300 300 301 302 302 303 304 304 304 303 303 301 300 299 298 299 299
301 305 316 322 322 319 318 316 316 315 313 310 310 309 310 310 310 311 312 312 310 308 306 303 300 299 299 300 300 300 301 303 304 305 306 305 304 304 303 303 301 300 299
296 299 306 313 314 314 315 314 312 312 310 308 306 307 307 308 309 310 310 309 308 305 302 300 298 297 297 298 299 300 300 300 301 302 303 303 303 304 303 303 302 302 301
293 297 301 305 308 308 308 309 310 308 306 305 303 301 301 303 305 307 307 305 305 303 301 299 298 297 298 299 299 299 299 300 299 300 301 300 301 302 302 302 302 302 303
295 295 297 301 304 306 303 303 306 306 302 301 300 300 301 302 304 306 306 303 303 303 300 298 298 298 298 298 298 298 299 298 298 299 298 299 300 301 301 302 301 301 302
290 290 294 297 301 302 305 303 304 304 304 300 297 300 301 302 302 304 305 303 301 300 299 298 299 298 297 298 298 298 298 298 298 296 296 296 298 299 300 301 301 301 301
287 288 291 295 298 300 301 302 303 304 303 300 300 302 299 299 298 298 298 299 299 298 298 298 298 299 298 297 296 295 295 295 295 295 295 296 298 299 299 301 301 302 301
289 287 289 292 296 298 298 299 300 300 301 301 299 298 296 297 297 296 296 297 300 300 300 299 298 298 297 297 297 297 295 295 295 295 295 296 297 299 300 300 300 301 301
287 289 289 291 294 295 295 297 297 297 297 298 297 296 295 296 295 296 297 297 298 299 298 297 297 298 297 297 298 297 296 296 297 297 296 297 296 297 298 299 299 299 299
285 287 290 291 292 294 294 295 296 295 295 296 296 295 294 294 295 297 298 299 298 298 297 297 297 296 296 296 296 296 296 296 296 296 297 297 296 296 296 297 298 299 298
Height
5888 5888 5889 5890 5890 5891 5892 5893 5894 5895 5896 5896 5897 5897 5897 5897 5898 5898 5898 5898 5898 5898 5897 5897 5897 5897 5896 5896 5895 5895 5894 5894 5893 5893 5893 5894 5894 5893 5893 5893 5892 5892 5892
5889 5890 5890 5891 5891 5892 5893 5894 5894 5895 5896 5896 5897 5897 5897 5897 5897 5897 5897 5897 5897 5896 5896 5896 5896 5895 5895 5895 5894 5893 5893 5892 5892 5892 5891 5891 5892 5891 5891 5891 5891 5890 5890
5890 5891 5892 5892 5893 5893 5894 5894 5895 5895 5896 5897 5897 5897 5897 5897 5897 5896 5896 5896 5896 5895 5895 5895 5894 5894 5894 5893 5893 5892 5891 5890 5890 5890 5890 5890 5890 5889 5889 5889 5888 5888 5887
5892 5892 5893 5893 5893 5894 5894 5895 5895 5896 5896 5897 5897 5897 5897 5897 5896 5896 5895 5895 5895 5894 5894 5893 5893 5893 5892 5891 5891 5890 5890 5889 5888 5888 5888 5888 5887 5887 5886 5886 5885 5885 5885
5893 5893 5894 5894 5894 5895 5895 5896 5896 5896 5896 5896 5896 5896 5896 5896 5896 5895 5894 5894 5893 5893 5892 5892 5891 5891 5890 5890 5889 5888 5888 5887 5886 5886 5885 5885 5885 5884 5884 5883 5883 5882 5882
5894 5895 5895 5895 5895 5896 5896 5896 5896 5896 5896 5896 5896 5896 5896 5895 5895 5894 5893 5892 5892 5891 5891 5890 5889 5889 5888 5887 5887 5886 5885 5884 5884 5883 5883 5882 5882 5881 5881 5880 5880 5879 5878
5896 5896 5896 5896 5896 5896 5896 5896 5896 5896 5896 5896 5895 5895 5895 5894 5894 5893 5892 5891 5890 5890 5889 5888 5887 5886 5886 5885 5884 5883 5883 5882 5881 5881 5880 5879 5878 5878 5877 5877 5876 5875 5875
5896 5897 5897 5897 5897 5897 5897 5897 5897 5896 5896 5895 5895 5895 5894 5894 5893 5892 5891 5890 5889 5888 5887 5886 5885 5884 5883 5882 5881 5881 5880 5879 5878 5878 5877 5876 5875 5874 5873 5873 5872 5871 5871
5897 5897 5897 5897 5897 5897 5897 5897 5896 5896 5895 5895 5894 5894 5893 5893 5892 5891 5890 5889 5888 5887 5886 5885 5883 5882 5881 5880 5879 5878 5877 5876 5875 5875 5874 5873 5872 5871 5870 5869 5868 5867 5867
5897 5897 5897 5897 5897 5897 5897 5896 5896 5895 5894 5894 5893 5893 5892 5891 5891 5890 5889 5887 5886 5885 5884 5883 5881 5880 5879 5877 5876 5875 5874 5873 5872 5871 5870 5869 5868 5867 5866 5865 5864 5863 5862
5898 5897 5897 5897 5897 5897 5896 5896 5895 5895 5894 5893 5892 5892 5891 5890 5889 5888 5887 5886 5884 5883 5882 5880 5879 5878 5876 5875 5873 5872 5871 5870 5869 5868 5867 5866 5864 5863 5863 5862 5860 5859 5858
5898 5898 5897 5897 5897 5897 5896 5895 5895 5894 5893 5892 5891 5890 5889 5888 5887 5886 5885 5884 5882 5881 5879 5878 5876 5875 5873 5872 5871 5869 5868 5867 5866 5865 5863 5862 5861 5860 5859 5858 5856 5855 5853
5898 5898 5897 5897 5896 5896 5895 5894 5894 5893 5892 5891 5890 5889 5888 5886 5885 5884 5883 5882 5880 5879 5877 5875 5873 5872 5870 5869 5868 5866 5865 5864 5863 5861 5860 5859 5857 5856 5855 5853 5852 5850 5849
5898 5898 5897 5896 5896 5895 5894 5893 5892 5891 5890 5889 5888 5887 5886 5884 5883 5882 5881 5879 5878 5876 5874 5872 5870 5869 5867 5866 5864 5863 5862 5861 5859 5858 5856 5855 5853 5852 5850 5849 5847 5846 5844
5898 5897 5896 5896 5895 5894 5893 5892 5891 5889 5888 5887 5886 5885 5884 5882 5881 5879 5878 5876 5875 5873 5871 5869 5868 5866 5864 5863 5861 5860 5859 5857 5855 5854 5852 5851 5849 5847 5846 5844 5843 5841 5839
5897 5896 5896 5895 5894 5892 5891 5890 5889 5888 5887 5885 5884 5883 5881 5880 5878 5877 5875 5873 5872 5870 5868 5867 5865 5863 5862 5860 5859 5857 5855 5854 5852 5850 5848 5847 5845 5843 5841 5839 5838 5836 5834
5896 5895 5895 5894 5892 5891 5890 5889 5887 5886 5885 5883 5882 5880 5879 5877 5876 5874 5873 5871 5869 5867 5865 5864 5862 5860 5859 5857 5855 5854 5852 5850 5848 5846 5844 5843 5841 5839 5837 5835 5833 5831 5829
5895 5894 5893 5892 5891 5890 5888 5887 5886 5884 5883 5881 5880 5878 5876 5875 5873 5872 5870 5868 5866 5864 5862 5861 5859 5857 5855 5854 5852 5850 5848 5846 5844 5842 5840 5838 5836 5834 5832 5830 5828 5826 5824
5893 5893 5892 5891 5890 5888 5887 5885 5883 5882 5880 5878 5877 5875 5874 5872 5870 5869 5867 5865 5863 5861 5859 5857 5855 5853 5852 5850 5848 5846 5844 5842 5840 5838 5836 5833 5831 5829 5827 5825 5823 5821 5818
5891 5891 5890 5889 5887 5886 5884 5883 5881 5879 5877 5875 5874 5872 5871 5869 5867 5865 5863 5861 5859 5857 5855 5853 5851 5849 5847 5845 5843 5842 5840 5837 5835 5833 5831 5829 5826 5824 5822 5820 5818 5816 5813
5889 5888 5888 5886 5885 5883 5881 5880 5878 5876 5874 5872 5870 5869 5867 5866 5864 5862 5859 5857 5855 5853 5851 5849 5847 5845 5843 5840 5838 5836 5834 5832 5830 5827 5825 5823 5821 5819 5817 5814 5812 5810 5807
5886 5885 5884 5883 5882 5880 5879 5877 5875 5872 5870 5868 5866 5865 5863 5862 5860 5858 5855 5853 5850 5848 5846 5844 5842 5839 5837 5835 5833 5830 5828 5826 5824 5822 5820 5818 5815 5813 5811 5808 5806 5804 5801
5883 5882 5881 5880 5878 5877 5875 5873 5871 5869 5867 5864 5862 5861 5859 5857 5855 5853 5850 5848 5846 5843 5841 5839 5836 5834 5831 5829 5827 5824 5822 5820 5818 5815 5813 5811 5809 5807 5804 5802 5800 5797 5795
5878 5877 5876 5875 5874 5872 5871 5869 5867 5864 5862 5860 5858 5856 5854 5851 5849 5847 5845 5843 5840 5838 5835 5833 5831 5828 5826 5823 5821 5818 5816 5814 5811 5809 5807 5805 5803 5800 5797 5795 5793 5790 5787
5872 5872 5871 5870 5869 5868 5866 5864 5862 5859 5857 5855 5853 5851 5848 5846 5844 5841 5839 5837 5835 5832 5830 5827 5824 5822 5819 5817 5815 5812 5810 5807 5805 5803 5800 5797 5795 5792 5790 5788 5785 5782 5779
5867 5866 5866 5865 5863 5862 5860 5858 5856 5854 5852 5850 5847 5845 5843 5840 5838 5835 5833 5831 5828 5826 5823 5821 5818 5815 5813 5810 5808 5805 5803 5800 5798 5795 5793 5790 5787 5784 5782 5780 5777 5774 5771